| time (UTC) | temp C | wind direction | speed KPH | gust KPH | rain 1hr cm | rain 24hr cm | rain mn cm | humidity % | barometer mb |
| 20260506174536 | 19 | 272 | 0.0 | 0.0 | 0.00 | 0.00 | 0.00 | 45 | 1009.3 |
| 20260506173055 | 20 | 300 | 0.0 | 3.2 | 0.00 | 0.00 | 0.00 | 45 | 1009.2 |
| 20260506171540 | 19 | 236 | 0.0 | 1.6 | 0.00 | 0.00 | 0.00 | 45 | 1009.1 |
| 20260506170047 | 19 | 242 | 0.0 | 4.8 | 0.00 | 0.00 | 0.00 | 46 | 1009.1 |
| 20260506164530 | 20 | 250 | 0.0 | 3.2 | 0.00 | 0.00 | 0.00 | 43 | 1009.1 |
| 20260506163032 | 20 | 86 | 0.0 | 6.4 | 0.00 | 0.00 | 0.00 | 44 | 1009.2 |
| 20260506161528 | 20 | 246 | 0.0 | 0.0 | 0.00 | 0.00 | 0.00 | 41 | 1009.2 |
| 20260506160027 | 21 | 285 | 0.0 | 6.4 | 0.00 | 0.00 | 0.00 | 42 | 1009.2 |
| 20260506154526 | 21 | 286 | 0.0 | 0.0 | 0.00 | 0.00 | 0.00 | 44 | 1009.4 |
| 20260506153025 | 21 | 263 | 0.0 | 1.6 | 0.00 | 0.00 | 0.00 | 41 | 1009.5 |
| 20260506151522 | 21 | 292 | 0.0 | 4.8 | 0.00 | 0.00 | 0.00 | 40 | 1009.6 |
| 20260506150021 | 21 | 241 | 0.0 | 0.0 | 0.00 | 0.00 | 0.00 | 42 | 1009.6 |
| 20260506144519 | 20 | 257 | 0.0 | 3.2 | 0.00 | 0.00 | 0.00 | 43 | 1009.8 |
| 20260506143024 | 21 | 9 | 0.0 | 6.4 | 0.00 | 0.00 | 0.00 | 43 | 1010.0 |
| 20260506141513 | 20 | 171 | 0.0 | 0.0 | 0.00 | 0.00 | 0.00 | 43 | 1010.1 |
| 20260506140018 | 20 | 88 | 0.0 | 1.6 | 0.00 | 0.00 | 0.00 | 44 | 1010.3 |
| 20260506134510 | 20 | 211 | 0.0 | 4.8 | 0.00 | 0.00 | 0.00 | 45 | 1010.4 |
| 20260506133010 | 20 | 262 | 0.0 | 12.9 | 0.00 | 0.00 | 0.00 | 44 | 1010.5 |
| 20260506131510 | 20 | 238 | 0.0 | 0.0 | 0.00 | 0.00 | 0.00 | 46 | 1010.6 |
| 20260506130004 | 19 | 202 | 0.0 | 4.8 | 0.00 | 0.00 | 0.00 | 47 | 1010.7 |
| 20260506124503 | 19 | 210 | 0.0 | 1.6 | 0.00 | 0.00 | 0.00 | 47 | 1010.7 |
| 20260506123002 | 19 | 281 | 0.0 | 6.4 | 0.00 | 0.00 | 0.00 | 47 | 1010.9 |
| 20260506121559 | 18 | 298 | 0.0 | 6.4 | 0.00 | 0.00 | 0.00 | 49 | 1010.9 |
| 20260506120056 | 18 | 239 | 0.0 | 4.8 | 0.00 | 0.00 | 0.00 | 51 | 1011.0 |
| 20260506114603 | 18 | 272 | 0.0 | 3.2 | 0.00 | 0.00 | 0.00 | 54 | 1011.1 |
| 20260506113052 | 17 | 242 | 0.0 | 11.3 | 0.00 | 0.00 | 0.00 | 55 | 1011.2 |
| 20260506111551 | 17 | 264 | 0.0 | 11.3 | 0.00 | 0.00 | 0.00 | 54 | 1011.3 |
| 20260506110049 | 17 | 19 | 0.0 | 0.0 | 0.00 | 0.00 | 0.00 | 56 | 1011.4 |
| 20260506104609 | 17 | 186 | 0.0 | 6.4 | 0.00 | 0.00 | 0.00 | 56 | 1011.6 |
| 20260506103048 | 17 | 306 | 0.0 | 3.2 | 0.00 | 0.00 | 0.00 | 57 | 1011.7 |
| 20260506101548 | 17 | 219 | 0.0 | 3.2 | 0.00 | 0.00 | 0.00 | 58 | 1011.8 |
| 20260506100044 | 16 | 30 | 0.0 | 0.0 | 0.00 | 0.00 | 0.00 | 62 | 1011.9 |
| 20260506094539 | 15 | 36 | 0.0 | 3.2 | 0.00 | 0.00 | 0.00 | 62 | 1012.0 |
| 20260506093035 | 15 | 159 | 0.0 | 3.2 | 0.00 | 0.00 | 0.00 | 64 | 1012.0 |
| 20260506091530 | 15 | 327 | 0.0 | 4.8 | 0.00 | 0.00 | 0.00 | 65 | 1011.9 |
| 20260506090028 | 14 | 273 | 0.0 | 4.8 | 0.00 | 0.00 | 0.00 | 66 | 1011.8 |
| 20260506084524 | 13 | 261 | 0.0 | 1.6 | 0.00 | 0.00 | 0.00 | 69 | 1011.9 |
| 20260506083035 | 13 | 267 | 0.0 | 4.8 | 0.00 | 0.00 | 0.00 | 69 | 1011.8 |
| 20260506081517 | 13 | 317 | 0.0 | 0.0 | 0.00 | 0.00 | 0.00 | 69 | 1011.8 |
| 20260506073007 | 12 | 260 | 0.0 | 0.0 | 0.00 | 0.00 | 0.00 | 72 | 1011.9 |
| 20260506071504 | 11 | 213 | 0.0 | 3.2 | 0.00 | 0.00 | 0.00 | 73 | 1011.8 |
| 20260506061600 | 9 | 254 | 0.0 | 0.0 | 0.00 | 0.00 | 0.00 | 83 | 1011.7 |
| 20260506044604 | 7 | 244 | 0.0 | 0.0 | 0.00 | 0.00 | 0.00 | 87 | 1010.9 |
| 20260506043055 | 7 | 241 | 0.0 | 0.0 | 0.00 | 0.00 | 0.00 | 87 | 1010.9 |
| 20260506041550 | 7 | 261 | 0.0 | 0.0 | 0.00 | 0.00 | 0.00 | 86 | 1010.8 |
| 20260506040051 | 7 | 277 | 0.0 | 0.0 | 0.00 | 0.00 | 0.00 | 86 | 1010.8 |
| 20260506034547 | 7 | 197 | 0.0 | 0.0 | 0.00 | 0.00 | 0.00 | 86 | 1010.8 |
| 20260506033045 | 7 | 276 | 0.0 | 0.0 | 0.00 | 0.00 | 0.00 | 85 | 1010.8 |
| 20260506031546 | 7 | 273 | 0.0 | 0.0 | 0.00 | 0.00 | 0.00 | 85 | 1010.8 |
| 20260506030041 | 8 | 227 | 0.0 | 0.0 | 0.00 | 0.00 | 0.00 | 84 | 1010.6 |
| 20260506024544 | 8 | 287 | 0.0 | 0.0 | 0.00 | 0.00 | 0.00 | 83 | 1010.6 |
| 20260506023037 | 8 | 248 | 0.0 | 0.0 | 0.00 | 0.00 | 0.00 | 83 | 1010.5 |
| 20260506021550 | 8 | 247 | 0.0 | 0.0 | 0.00 | 0.00 | 0.00 | 83 | 1010.4 |
| 20260506020036 | 8 | 291 | 0.0 | 0.0 | 0.00 | 0.00 | 0.00 | 83 | 1010.4 |
| 20260506014534 | 8 | 257 | 0.0 | 0.0 | 0.00 | 0.00 | 0.00 | 82 | 1010.5 |
| 20260506013033 | 9 | 255 | 0.0 | 0.0 | 0.00 | 0.00 | 0.00 | 82 | 1010.5 |
| 20260506011532 | 9 | 249 | 0.0 | 0.0 | 0.00 | 0.00 | 0.00 | 82 | 1010.5 |
| 20260506010043 | 9 | 265 | 0.0 | 0.0 | 0.00 | 0.00 | 0.00 | 82 | 1010.4 |
| 20260506004528 | 9 | 242 | 0.0 | 1.6 | 0.00 | 0.00 | 0.00 | 81 | 1010.4 |
| 20260506003027 | 9 | 256 | 0.0 | 0.0 | 0.00 | 0.00 | 0.00 | 81 | 1010.5 |
| 20260506001525 | 10 | 256 | 0.0 | 0.0 | 0.00 | 0.00 | 0.00 | 81 | 1010.6 |
| 20260506000025 | 10 | 257 | 0.0 | 0.0 | 0.00 | 0.03 | 0.00 | 81 | 1010.7 |
| 20260505234523 | 10 | 256 | 0.0 | 0.0 | 0.00 | 0.03 | 0.00 | 82 | 1010.6 |
| 20260505233021 | 10 | 256 | 0.0 | 0.0 | 0.00 | 0.03 | 0.00 | 82 | 1010.7 |
| 20260505231526 | 10 | 256 | 0.0 | 0.0 | 0.00 | 0.03 | 0.00 | 82 | 1010.6 |
| 20260505230019 | 10 | 256 | 0.0 | 0.0 | 0.00 | 0.03 | 0.00 | 82 | 1010.6 |
| 20260505224526 | 10 | 252 | 0.0 | 0.0 | 0.00 | 0.03 | 0.00 | 82 | 1010.6 |
| 20260505223017 | 11 | 252 | 0.0 | 0.0 | 0.00 | 0.03 | 0.00 | 81 | 1010.7 |
| 20260505221511 | 11 | 252 | 0.0 | 0.0 | 0.00 | 0.03 | 0.00 | 80 | 1010.6 |
| 20260505220009 | 11 | 252 | 0.0 | 0.0 | 0.00 | 0.03 | 0.03 | 79 | 1010.6 |
| 20260505214509 | 12 | 252 | 0.0 | 0.0 | 0.00 | 0.03 | 0.03 | 77 | 1010.6 |
| 20260505213008 | 12 | 252 | 0.0 | 0.0 | 0.00 | 0.03 | 0.03 | 76 | 1010.5 |
| 20260505211523 | 12 | 263 | 0.0 | 0.0 | 0.00 | 0.03 | 0.03 | 74 | 1010.7 |
| 20260505210008 | 13 | 264 | 0.0 | 0.0 | 0.00 | 0.03 | 0.03 | 73 | 1010.7 |
| 20260505204508 | 13 | 259 | 0.0 | 0.0 | 0.00 | 0.03 | 0.03 | 73 | 1010.7 |
| 20260505203006 | 13 | 271 | 0.0 | 0.0 | 0.00 | 0.03 | 0.03 | 75 | 1010.5 |
| 20260505201508 | 13 | 160 | 0.0 | 3.2 | 0.00 | 0.03 | 0.03 | 71 | 1010.3 |
| 20260505200006 | 13 | 229 | 0.0 | 0.0 | 0.00 | 0.05 | 0.03 | 71 | 1010.0 |
| 20260505194507 | 14 | 207 | 0.0 | 0.0 | 0.00 | 0.05 | 0.03 | 75 | 1009.5 |
| 20260505193006 | 14 | 207 | 0.0 | 0.0 | 0.00 | 0.05 | 0.03 | 75 | 1009.3 |
| 20260505191504 | 14 | 217 | 0.0 | 0.0 | 0.00 | 0.05 | 0.03 | 75 | 1009.2 |
| 20260505190010 | 15 | 242 | 0.0 | 0.0 | 0.00 | 0.41 | 0.03 | 75 | 1009.0 |
| 20260505184503 | 15 | 264 | 0.0 | 0.0 | 0.00 | 0.41 | 0.03 | 73 | 1008.8 |
| 20260505183003 | 16 | 233 | 0.0 | 0.0 | 0.00 | 0.41 | 0.03 | 72 | 1008.7 |
| 20260505181502 | 16 | 232 | 0.0 | 0.0 | 0.00 | 0.41 | 0.03 | 69 | 1008.7 |
| 20260505180001 | 16 | 220 | 0.0 | 1.6 | 0.00 | 2.11 | 0.03 | 66 | 1008.8 |